Find Westar 1

NORAD ID: 7250 Int'l Des: 1974-022 Owner: WUTC Country: US operational
HEOCIRCULAR

Live Position

Loading 3D Globe...

About Westar 1

Description loading...

Upcoming Passes

Passes for default location (London). Set your location on the main map for personalized predictions.

Altitude History

Loading altitude history...

Two-Line Element Set

1 7250U 74022A 26105.86035185 .00000026 00000-0 00000+0 0 9996
2 7250 7.2489 298.4667 0006187 44.5759 239.9614 0.99888028121701
Epoch: Apr 15, 2026 • Age: 8 hours

Current Status

Altitude 35867.3 km
Velocity 3.07 km/s
Sub-Earth Point 5.24°N, 68.57°E
Type other

Most Searched